Terminal Aerodrome Forecast
Issued by NWS

Home | Current Version | Previous Version | Text Only | Print | Product List | Glossary On
Versions: 1 2 3 4 5 6 7 8 9 10 11 12 13 14 15 16 17 18 19 20 21 22 23 24 25
424
FTUS42 KRAH 081727
TAFINT
TAF
KINT 081727Z 0818/0918 20008KT P6SM OVC050
      TEMPO 0819/0823 4SM -SHRA BR OVC020
     FM090200 27006KT P6SM BKN060
     FM091600 28008G16KT P6SM SCT050 BKN250=

USA.gov is the U.S. government's official web portal to all federal, state and local government web resources and services.